Flag for Brazil Weather past 2 weeks in Maceió, Alagoas, Brazil

Now
86 °F

Scattered clouds.


Feels Like: 87 °F
Forecast: 78 / 87 °F
Wind: 9 mph from Southeast

Location: Maceio Aeroporto

Current Time: Mar 4, 2015 at 2:14:42 PM

Latest Report: Mar 4, 2015 at 1:00 PM


Visibility: N/A

Pressure: 29.89 "Hg

Humidity: 46%

Dew point: 63 °F

Location of MaceióLocation

Historic Weather in Maceió — Graph

°F

Maceió temperature yesterday

Maximum temperature yesterday: 86 °F (at 2:00 PM)
Minimum temperature yesterday: 72 °F (at 12:00 AM)
Average temperature yesterday: 77 °F

Past Weeks' High & Low Weather Summary

 TemperatureHumidityPressure
High88 °F (Mar 1, 1:00 PM)100% (Feb 18, 6:00 AM)30.04 "Hg (Feb 18, 6:00 AM)
Low32 °F (Feb 18, 9:00 AM)45% (Feb 26, 1:00 PM)29.83 "Hg (Feb 19, 4:00 PM)
Average74 °F81%29.91 "Hg
* Reported Feb 17 1:00 PM — Mar 4 1:00 PM, Maceió, Weather by CustomWeather, © 2015

Note: Actual official high and low records may vary slightly from our data, if they occured in-between our weather recording intervals... More about our weather records

Advertising

Maceió weather history for previous 24 hours

 ConditionsComfort  
Time TempWeatherWind HumidityBarometerVisibility
1:00 PM
Wed, Mar 4
86 °FScattered clouds.9 mph46%29.89 "HgN/A
12:00 PM84 °FScattered clouds.9 mph55%29.92 "HgN/A
11:00 AM82 °FScattered clouds.12 mph66%29.95 "HgN/A
10:00 AM82 °FScattered clouds.10 mph62%29.98 "HgN/A
9:00 AM81 °FScattered clouds.7 mph70%29.98 "HgN/A
8:00 AM77 °FPassing clouds.2 mph83%29.95 "HgN/A
7:00 AM73 °FPassing clouds.2 mph94%29.95 "HgN/A
6:00 AM72 °FPassing clouds.3 mph94%29.92 "HgN/A
5:00 AM72 °FPassing clouds.3 mph94%29.89 "HgN/A
4:00 AM72 °FPassing clouds.2 mph94%29.86 "HgN/A
3:00 AM73 °FPassing clouds.2 mph89%29.86 "HgN/A
2:00 AM72 °FPassing clouds.2 mph94%29.89 "HgN/A
1:00 AM72 °FPassing clouds.3 mph94%29.89 "HgN/A
12:00 AM73 °FPassing clouds.2 mph89%29.92 "HgN/A
11:00 PM
Tue, Mar 3
73 °FPassing clouds.3 mph89%29.95 "HgN/A
10:00 PM73 °FPassing clouds.3 mph89%29.95 "HgN/A
9:00 PM73 °FPassing clouds.3 mph94%29.95 "HgN/A
8:00 PM75 °FPassing clouds.2 mph89%29.92 "HgN/A
7:00 PM77 °FPassing clouds.6 mph83%29.89 "HgN/A
6:00 PM79 °FPassing clouds.14 mph74%29.89 "HgN/A
5:00 PM81 °FScattered clouds.14 mph66%29.86 "HgN/A
4:00 PM84 °FPassing clouds.13 mph62%29.86 "HgN/A
3:00 PM86 °FPassing clouds.13 mph52%29.86 "HgN/A
2:00 PM86 °FScattered clouds.12 mph52%29.89 "HgN/A
Weather by CustomWeather, © 2015

See weather overviewHow to use our weather pages